QPF
0.12 0.13 0.10 0.10 0.10 0.12 0.13 0.14 0.14 0.15 0.16 0.15 0.13 0.10 0.08 0.11 0.10 0.09 0.05 0.05 0.13 0.18 0.14 0.12 0.12 0.13 0.16 0.18 0.21 0.24 0.24 0.23 0.24 0.23 0.16 0.07 0.04 0.07 0.08 0.04 0.01 0.00 0.00
0.14 0.15 0.13 0.14 0.14 0.16 0.21 0.26 0.24 0.24 0.22 0.18 0.12 0.09 0.08 0.11 0.12 0.13 0.08 0.08 0.08 0.11 0.10 0.09 0.09 0.10 0.15 0.17 0.17 0.20 0.20 0.20 0.17 0.14 0.16 0.15 0.07 0.04 0.07 0.10 0.07 0.03 0.00
0.20 0.22 0.20 0.17 0.16 0.18 0.21 0.25 0.28 0.28 0.24 0.19 0.17 0.16 0.14 0.14 0.11 0.12 0.10 0.09 0.07 0.04 0.03 0.03 0.04 0.04 0.06 0.10 0.14 0.15 0.14 0.12 0.11 0.08 0.07 0.08 0.09 0.05 0.02 0.06 0.10 0.09 0.03
0.22 0.22 0.19 0.16 0.16 0.15 0.14 0.16 0.19 0.19 0.19 0.22 0.24 0.24 0.21 0.21 0.15 0.13 0.10 0.08 0.06 0.03 0.01 0.01 0.01 0.01 0.01 0.02 0.06 0.12 0.12 0.09 0.07 0.07 0.05 0.05 0.06 0.05 0.03 0.01 0.04 0.08 0.07
0.21 0.21 0.19 0.15 0.11 0.09 0.08 0.07 0.08 0.09 0.10 0.13 0.16 0.20 0.19 0.16 0.12 0.07 0.05 0.03 0.02 0.01 0.01 0.01 0.00 0.00 0.00 0.01 0.03 0.08 0.11 0.09 0.07 0.07 0.07 0.07 0.07 0.05 0.03 0.02 0.01 0.02 0.04
0.18 0.19 0.16 0.12 0.08 0.06 0.05 0.04 0.04 0.04 0.05 0.05 0.04 0.05 0.06 0.06 0.05 0.03 0.01 0.00 0.00 0.00 0.00 0.00 0.00 0.00 0.00 0.00 0.01 0.04 0.08 0.10 0.08 0.08 0.10 0.11 0.11 0.08 0.04 0.02 0.01 0.00 0.01
0.14 0.16 0.14 0.12 0.08 0.06 0.04 0.03 0.02 0.02 0.02 0.02 0.02 0.02 0.02 0.02 0.01 0.01 0.00 0.00 0.00 0.00 0.00 0.00 0.00 0.00 0.00 0.00 0.00 0.00 0.02 0.04 0.07 0.08 0.09 0.10 0.11 0.09 0.06 0.04 0.02 0.01 0.00
0.09 0.11 0.13 0.10 0.08 0.07 0.05 0.03 0.03 0.02 0.01 0.01 0.01 0.01 0.01 0.00 0.00 0.00 0.00 0.00 0.00 0.00 0.00 0.00 0.00 0.00 0.00 0.00 0.00 0.00 0.00 0.01 0.03 0.06 0.07 0.08 0.08 0.07 0.05 0.04 0.03 0.01 0.00
0.04 0.08 0.11 0.11 0.09 0.06 0.06 0.05 0.04 0.03 0.02 0.01 0.01 0.00 0.00 0.00 0.00 0.00 0.00 0.00 0.00 0.00 0.00 0.00 0.00 0.00 0.00 0.01 0.01 0.01 0.00 0.00 0.01 0.03 0.06 0.06 0.05 0.04 0.03 0.04 0.04 0.02 0.01
0.04 0.05 0.06 0.08 0.10 0.09 0.09 0.05 0.04 0.03 0.02 0.01 0.01 0.00 0.00 0.00 0.00 0.00 0.00 0.00 0.00 0.00 0.00 0.00 0.00 0.00 0.00 0.01 0.02 0.01 0.00 0.00 0.00 0.02 0.04 0.04 0.03 0.03 0.02 0.02 0.04 0.05 0.03
0.03 0.04 0.07 0.08 0.07 0.09 0.09 0.08 0.06 0.04 0.03 0.01 0.01 0.00 0.00 0.00 0.00 0.00 0.00 0.00 0.00 0.00 0.00 0.00 0.00 0.00 0.00 0.00 0.03 0.02 0.00 0.00 0.00 0.01 0.02 0.03 0.03 0.02 0.01 0.01 0.04 0.06 0.06
0.01 0.02 0.05 0.08 0.10 0.10 0.09 0.08 0.06 0.05 0.04 0.02 0.01 0.00 0.00 0.00 0.00 0.00 0.00 0.00 0.00 0.00 0.00 0.00 0.00 0.00 0.01 0.01 0.02 0.00 0.00 0.00 0.00 0.00 0.00 0.01 0.02 0.02 0.02 0.02 0.04 0.07 0.09
0.00 0.00 0.01 0.04 0.08 0.12 0.15 0.12 0.07 0.05 0.05 0.04 0.02 0.01 0.00 0.00 0.00 0.00 0.00 0.00 0.00 0.00 0.00 0.00 0.00 0.01 0.01 0.01 0.01 0.00 0.00 0.00 0.00 0.00 0.00 0.00 0.00 0.01 0.02 0.02 0.04 0.07 0.11
0.00 0.00 0.00 0.01 0.03 0.07 0.12 0.15 0.14 0.12 0.09 0.06 0.04 0.03 0.01 0.00 0.00 0.00 0.00 0.00 0.00 0.00 0.00 0.00 0.00 0.00 0.00 0.00 0.00 0.00 0.01 0.00 0.00 0.00 0.00 0.00 0.00 0.01 0.01 0.03 0.04 0.07 0.11
0.00 0.00 0.00 0.00 0.00 0.02 0.05 0.11 0.17 0.21 0.20 0.14 0.10 0.08 0.04 0.02 0.00 0.00 0.00 0.00 0.00 0.00 0.00 0.00 0.00 0.00 0.00 0.00 0.00 0.00 0.01 0.00 0.00 0.00 0.00 0.00 0.01 0.02 0.03 0.04 0.07 0.09 0.13
0.00 0.00 0.00 0.00 0.00 0.00 0.01 0.04 0.13 0.25 0.34 0.32 0.25 0.19 0.13 0.07 0.04 0.02 0.01 0.00 0.00 0.01 0.01 0.00 0.01 0.01 0.00 0.00 0.00 0.01 0.01 0.00 0.00 0.00 0.00 0.01 0.02 0.03 0.04 0.05 0.07 0.10 0.12
0.00 0.00 0.00 0.00 0.00 0.00 0.00 0.01 0.05 0.17 0.36 0.50 0.50 0.41 0.29 0.20 0.13 0.07 0.03 0.01 0.01 0.01 0.02 0.02 0.01 0.01 0.01 0.01 0.01 0.01 0.01 0.01 0.01 0.01 0.01 0.02 0.03 0.03 0.05 0.04 0.04 0.05 0.07
0.00 0.00 0.00 0.00 0.00 0.00 0.00 0.00 0.01 0.04 0.15 0.36 0.55 0.62 0.53 0.40 0.26 0.16 0.09 0.05 0.02 0.01 0.02 0.04 0.03 0.01 0.02 0.03 0.04 0.01 0.01 0.01 0.01 0.02 0.02 0.03 0.04 0.04 0.05 0.05 0.05 0.03 0.02
0.00 0.00 0.00 0.00 0.00 0.00 0.00 0.00 0.00 0.00 0.02 0.09 0.24 0.45 0.58 0.57 0.42 0.29 0.19 0.12 0.08 0.04 0.02 0.04 0.04 0.02 0.02 0.02 0.02 0.01 0.01 0.01 0.01 0.02 0.03 0.04 0.05 0.04 0.04 0.04 0.03 0.02 0.01
0.00 0.00 0.00 0.00 0.00 0.00 0.00 0.00 0.01 0.01 0.01 0.02 0.05 0.14 0.32 0.51 0.53 0.44 0.32 0.21 0.16 0.11 0.07 0.05 0.04 0.02 0.02 0.03 0.03 0.02 0.02 0.02 0.01 0.01 0.02 0.03 0.03 0.03 0.02 0.01 0.01 0.01 0.01
0.01 0.02 0.02 0.02 0.02 0.01 0.01 0.01 0.02 0.02 0.02 0.02 0.02 0.03 0.10 0.24 0.40 0.47 0.43 0.33 0.23 0.17 0.11 0.07 0.04 0.02 0.02 0.03 0.03 0.03 0.02 0.01 0.02 0.01 0.01 0.01 0.01 0.01 0.01 0.01 0.01 0.00 0.00
0.04 0.04 0.05 0.05 0.05 0.02 0.01 0.01 0.02 0.03 0.04 0.04 0.04 0.04 0.04 0.07 0.16 0.30 0.40 0.40 0.32 0.20 0.13 0.09 0.06 0.04 0.03 0.03 0.02 0.02 0.02 0.01 0.02 0.01 0.01 0.00 0.00 0.00 0.00 0.00 0.00 0.00 0.00
0.05 0.06 0.06 0.07 0.07 0.06 0.05 0.02 0.01 0.04 0.06 0.06 0.06 0.06 0.04 0.03 0.05 0.11 0.21 0.29 0.30 0.22 0.14 0.10 0.10 0.08 0.07 0.05 0.02 0.01 0.02 0.02 0.01 0.01 0.00 0.00 0.00 0.00 0.00 0.00 0.00 0.00 0.00
0.06 0.07 0.08 0.08 0.09 0.08 0.08 0.05 0.02 0.05 0.08 0.06 0.05 0.05 0.05 0.05 0.04 0.04 0.07 0.13 0.18 0.17 0.12 0.07 0.07 0.11 0.12 0.10 0.04 0.02 0.02 0.03 0.04 0.02 0.00 0.01 0.01 0.00 0.00 0.00 0.00 0.00 0.00
0.06 0.07 0.08 0.10 0.11 0.11 0.11 0.06 0.04 0.09 0.10 0.07 0.05 0.03 0.03 0.04 0.03 0.01 0.02 0.05 0.08 0.11 0.10 0.07 0.05 0.08 0.08 0.08 0.06 0.03 0.04 0.06 0.08 0.05 0.01 0.01 0.01 0.01 0.00 0.00 0.00 0.00 0.00
0.07 0.07 0.08 0.10 0.13 0.15 0.14 0.07 0.04 0.08 0.09 0.07 0.06 0.04 0.02 0.02 0.02 0.01 0.01 0.02 0.04 0.06 0.07 0.05 0.03 0.02 0.03 0.04 0.03 0.03 0.04 0.06 0.08 0.07 0.03 0.01 0.01 0.01 0.01 0.01 0.00 0.00 0.00
MSLP
1012.08 1012.21 1012.30 1012.36 1012.42 1012.48 1012.58 1012.70 1012.83 1012.97 1013.08 1013.17 1013.22 1013.26 1013.30 1013.36 1013.47 1013.65 1013.88 1014.16 1014.47 1014.79 1015.09 1015.35 1015.59 1015.82 1016.04 1016.28 1016.55 1016.87 1017.23 1017.61 1018.01 1018.40 1018.77 1019.12 1019.44 1019.74 1020.03 1020.32 1020.61 1020.90 1021.19
1011.66 1011.75 1011.80 1011.86 1011.92 1012.01 1012.13 1012.28 1012.44 1012.58 1012.69 1012.76 1012.79 1012.78 1012.77 1012.78 1012.84 1012.96 1013.16 1013.41 1013.72 1014.04 1014.36 1014.66 1014.94 1015.20 1015.45 1015.70 1015.98 1016.29 1016.63 1016.99 1017.37 1017.76 1018.14 1018.51 1018.87 1019.21 1019.55 1019.89 1020.22 1020.55 1020.87
1011.25 1011.27 1011.30 1011.35 1011.43 1011.55 1011.71 1011.90 1012.09 1012.25 1012.37 1012.43 1012.42 1012.38 1012.31 1012.26 1012.25 1012.31 1012.44 1012.65 1012.93 1013.24 1013.56 1013.89 1014.20 1014.49 1014.76 1015.04 1015.32 1015.62 1015.95 1016.29 1016.66 1017.04 1017.42 1017.81 1018.19 1018.57 1018.95 1019.32 1019.70 1020.07 1020.43
1010.83 1010.80 1010.79 1010.84 1010.94 1011.10 1011.30 1011.53 1011.76 1011.96 1012.09 1012.14 1012.12 1012.04 1011.93 1011.81 1011.73 1011.72 1011.79 1011.94 1012.17 1012.45 1012.76 1013.08 1013.40 1013.71 1014.00 1014.29 1014.58 1014.88 1015.20 1015.54 1015.90 1016.27 1016.66 1017.05 1017.45 1017.86 1018.26 1018.67 1019.08 1019.49 1019.88
1010.42 1010.34 1010.31 1010.36 1010.48 1010.67 1010.92 1011.19 1011.45 1011.67 1011.81 1011.87 1011.84 1011.74 1011.60 1011.45 1011.32 1011.25 1011.25 1011.34 1011.51 1011.74 1012.01 1012.31 1012.61 1012.91 1013.21 1013.50 1013.80 1014.10 1014.42 1014.76 1015.12 1015.50 1015.89 1016.29 1016.71 1017.13 1017.55 1017.98 1018.41 1018.84 1019.26
1010.07 1009.95 1009.90 1009.95 1010.09 1010.30 1010.57 1010.86 1011.14 1011.37 1011.53 1011.59 1011.57 1011.47 1011.32 1011.15 1011.00 1010.89 1010.85 1010.88 1010.98 1011.15 1011.37 1011.61 1011.88 1012.16 1012.44 1012.72 1013.02 1013.32 1013.65 1014.00 1014.37 1014.75 1015.15 1015.56 1015.99 1016.41 1016.85 1017.29 1017.73 1018.17 1018.60
1009.82 1009.67 1009.62 1009.66 1009.80 1010.02 1010.29 1010.58 1010.85 1011.08 1011.23 1011.30 1011.29 1011.21 1011.07 1010.92 1010.77 1010.65 1010.58 1010.57 1010.61 1010.72 1010.87 1011.05 1011.26 1011.49 1011.74 1012.00 1012.29 1012.60 1012.93 1013.29 1013.67 1014.06 1014.47 1014.88 1015.31 1015.73 1016.16 1016.60 1017.04 1017.48 1017.92
1009.70 1009.54 1009.48 1009.52 1009.65 1009.86 1010.10 1010.36 1010.60 1010.80 1010.93 1010.99 1010.99 1010.93 1010.83 1010.71 1010.59 1010.48 1010.41 1010.38 1010.38 1010.42 1010.51 1010.62 1010.77 1010.94 1011.15 1011.39 1011.66 1011.96 1012.30 1012.66 1013.04 1013.43 1013.84 1014.25 1014.66 1015.08 1015.50 1015.92 1016.35 1016.78 1017.22
1009.71 1009.56 1009.50 1009.53 1009.65 1009.82 1010.01 1010.22 1010.40 1010.54 1010.63 1010.68 1010.68 1010.64 1010.58 1010.50 1010.43 1010.36 1010.30 1010.25 1010.23 1010.23 1010.26 1010.31 1010.40 1010.53 1010.69 1010.90 1011.15 1011.44 1011.76 1012.12 1012.49 1012.87 1013.26 1013.65 1014.04 1014.43 1014.82 1015.22 1015.63 1016.05 1016.49
1009.83 1009.69 1009.63 1009.66 1009.74 1009.87 1010.00 1010.13 1010.23 1010.31 1010.35 1010.36 1010.35 1010.33 1010.30 1010.27 1010.24 1010.21 1010.17 1010.14 1010.11 1010.08 1010.07 1010.08 1010.13 1010.21 1010.35 1010.53 1010.76 1011.03 1011.33 1011.66 1012.01 1012.36 1012.71 1013.06 1013.41 1013.76 1014.12 1014.50 1014.89 1015.30 1015.72
1009.97 1009.84 1009.80 1009.81 1009.87 1009.94 1010.01 1010.06 1010.09 1010.09 1010.07 1010.04 1010.02 1010.01 1010.00 1010.01 1010.01 1010.01 1010.00 1009.98 1009.94 1009.91 1009.88 1009.87 1009.90 1009.97 1010.09 1010.26 1010.47 1010.72 1011.00 1011.29 1011.59 1011.89 1012.18 1012.47 1012.77 1013.08 1013.40 1013.74 1014.11 1014.51 1014.93
1010.05 1009.93 1009.89 1009.89 1009.92 1009.95 1009.96 1009.95 1009.91 1009.85 1009.78 1009.73 1009.69 1009.67 1009.68 1009.71 1009.74 1009.76 1009.76 1009.75 1009.72 1009.68 1009.65 1009.65 1009.68 1009.76 1009.88 1010.06 1010.27 1010.50 1010.75 1011.00 1011.24 1011.47 1011.70 1011.92 1012.15 1012.40 1012.68 1013.00 1013.35 1013.74 1014.16
1009.97 1009.87 1009.83 1009.82 1009.83 1009.82 1009.80 1009.74 1009.66 1009.57 1009.47 1009.40 1009.36 1009.34 1009.36 1009.39 1009.43 1009.46 1009.46 1009.45 1009.42 1009.40 1009.38 1009.40 1009.46 1009.56 1009.72 1009.92 1010.14 1010.37 1010.60 1010.80 1010.99 1011.15 1011.30 1011.44 1011.61 1011.81 1012.05 1012.33 1012.67 1013.05 1013.47
1009.71 1009.61 1009.56 1009.54 1009.54 1009.52 1009.47 1009.40 1009.31 1009.21 1009.12 1009.06 1009.03 1009.03 1009.05 1009.09 1009.12 1009.14 1009.14 1009.13 1009.10 1009.08 1009.09 1009.14 1009.24 1009.40 1009.60 1009.84 1010.09 1010.33 1010.54 1010.71 1010.85 1010.94 1011.02 1011.10 1011.21 1011.35 1011.55 1011.82 1012.14 1012.51 1012.92
1009.27 1009.16 1009.09 1009.06 1009.05 1009.02 1008.98 1008.92 1008.85 1008.78 1008.72 1008.69 1008.70 1008.73 1008.77 1008.82 1008.85 1008.86 1008.85 1008.82 1008.79 1008.78 1008.81 1008.90 1009.05 1009.27 1009.53 1009.82 1010.11 1010.37 1010.59 1010.75 1010.84 1010.89 1010.92 1010.95 1011.00 1011.11 1011.28 1011.52 1011.83 1012.19 1012.59
1008.70 1008.56 1008.48 1008.43 1008.40 1008.37 1008.34 1008.31 1008.27 1008.25 1008.26 1008.29 1008.35 1008.43 1008.51 1008.58 1008.63 1008.64 1008.62 1008.58 1008.55 1008.55 1008.60 1008.72 1008.91 1009.19 1009.51 1009.86 1010.19 1010.49 1010.73 1010.89 1010.97 1011.00 1011.00 1011.00 1011.02 1011.11 1011.26 1011.49 1011.79 1012.14 1012.51
1008.09 1007.92 1007.80 1007.72 1007.67 1007.64 1007.61 1007.60 1007.62 1007.65 1007.73 1007.84 1007.97 1008.12 1008.26 1008.37 1008.45 1008.48 1008.46 1008.43 1008.39 1008.40 1008.46 1008.61 1008.84 1009.16 1009.53 1009.93 1010.32 1010.66 1010.92 1011.11 1011.21 1011.24 1011.24 1011.24 1011.27 1011.35 1011.50 1011.73 1012.02 1012.35 1012.71
1007.52 1007.31 1007.15 1007.03 1006.95 1006.89 1006.86 1006.86 1006.90 1006.98 1007.12 1007.31 1007.52 1007.75 1007.97 1008.15 1008.27 1008.34 1008.35 1008.33 1008.31 1008.32 1008.39 1008.55 1008.81 1009.16 1009.56 1010.00 1010.43 1010.81 1011.12 1011.35 1011.48 1011.55 1011.58 1011.61 1011.66 1011.77 1011.94 1012.17 1012.47 1012.80 1013.14
1007.03 1006.78 1006.57 1006.41 1006.27 1006.17 1006.11 1006.09 1006.14 1006.25 1006.44 1006.68 1006.98 1007.29 1007.59 1007.85 1008.05 1008.18 1008.24 1008.25 1008.25 1008.27 1008.35 1008.52 1008.78 1009.13 1009.56 1010.02 1010.48 1010.91 1011.26 1011.54 1011.73 1011.86 1011.95 1012.04 1012.14 1012.29 1012.50 1012.76 1013.07 1013.41 1013.74
1006.63 1006.34 1006.09 1005.87 1005.67 1005.51 1005.39 1005.34 1005.35 1005.47 1005.67 1005.96 1006.32 1006.71 1007.10 1007.45 1007.74 1007.94 1008.07 1008.13 1008.16 1008.20 1008.29 1008.45 1008.70 1009.05 1009.47 1009.94 1010.43 1010.88 1011.29 1011.63 1011.89 1012.10 1012.27 1012.44 1012.62 1012.84 1013.10 1013.41 1013.75 1014.11 1014.46
1006.28 1005.96 1005.67 1005.39 1005.13 1004.90 1004.71 1004.59 1004.56 1004.64 1004.84 1005.16 1005.56 1006.01 1006.49 1006.93 1007.31 1007.60 1007.79 1007.92 1007.99 1008.05 1008.14 1008.29 1008.53 1008.86 1009.27 1009.74 1010.23 1010.72 1011.18 1011.58 1011.93 1012.23 1012.50 1012.76 1013.03 1013.34 1013.67 1014.04 1014.44 1014.83 1015.20
1005.91 1005.57 1005.25 1004.93 1004.61 1004.30 1004.04 1003.85 1003.77 1003.81 1003.99 1004.30 1004.73 1005.24 1005.77 1006.30 1006.76 1007.13 1007.41 1007.59 1007.71 1007.79 1007.89 1008.03 1008.25 1008.55 1008.95 1009.41 1009.91 1010.43 1010.94 1011.41 1011.85 1012.24 1012.62 1012.98 1013.36 1013.75 1014.17 1014.61 1015.07 1015.51 1015.93
1005.46 1005.12 1004.78 1004.42 1004.06 1003.71 1003.40 1003.15 1003.01 1003.01 1003.16 1003.47 1003.91 1004.44 1005.03 1005.61 1006.14 1006.58 1006.92 1007.16 1007.31 1007.42 1007.52 1007.65 1007.86 1008.15 1008.52 1008.98 1009.50 1010.05 1010.61 1011.15 1011.67 1012.17 1012.64 1013.11 1013.59 1014.07 1014.58 1015.09 1015.61 1016.11 1016.57
1004.89 1004.56 1004.22 1003.86 1003.49 1003.12 1002.78 1002.50 1002.34 1002.31 1002.44 1002.74 1003.18 1003.72 1004.33 1004.94 1005.51 1006.00 1006.38 1006.65 1006.83 1006.96 1007.07 1007.20 1007.39 1007.67 1008.05 1008.51 1009.05 1009.64 1010.25 1010.86 1011.46 1012.05 1012.61 1013.17 1013.73 1014.30 1014.88 1015.46 1016.03 1016.58 1017.10
1004.22 1003.90 1003.58 1003.25 1002.90 1002.55 1002.22 1001.96 1001.80 1001.77 1001.90 1002.18 1002.61 1003.15 1003.75 1004.37 1004.94 1005.44 1005.83 1006.12 1006.31 1006.45 1006.57 1006.70 1006.90 1007.19 1007.58 1008.06 1008.63 1009.26 1009.92 1010.59 1011.27 1011.92 1012.56 1013.19 1013.82 1014.44 1015.07 1015.70 1016.31 1016.90 1017.45
1003.49 1003.20 1002.92 1002.63 1002.34 1002.05 1001.77 1001.56 1001.43 1001.42 1001.56 1001.84 1002.25 1002.76 1003.33 1003.92 1004.46 1004.94 1005.31 1005.59 1005.78 1005.93 1006.06 1006.21 1006.43 1006.74 1007.15 1007.67 1008.27 1008.95 1009.66 1010.38 1011.11 1011.81 1012.50 1013.17 1013.83 1014.49 1015.14 1015.79 1016.43 1017.04 1017.62
Thickness
5740 5739 5737 5737 5739 5740 5740 5739 5739 5739 5739 5738 5738 5738 5737 5737 5737 5737 5738 5736 5734 5732 5731 5731 5729 5729 5728 5727 5726 5726 5726 5725 5724 5724 5723 5723 5723 5723 5724 5724 5723 5722 5721
5736 5735 5734 5734 5735 5735 5735 5734 5734 5734 5733 5735 5737 5737 5737 5736 5736 5735 5736 5736 5735 5734 5733 5732 5731 5730 5729 5727 5726 5726 5726 5726 5725 5724 5724 5723 5723 5723 5723 5724 5724 5723 5722
5729 5728 5728 5728 5731 5731 5730 5729 5729 5729 5729 5731 5734 5736 5736 5736 5736 5736 5736 5736 5737 5736 5735 5733 5732 5731 5730 5729 5728 5727 5727 5727 5727 5726 5725 5724 5723 5723 5723 5723 5724 5723 5723
5723 5722 5722 5725 5727 5726 5726 5726 5726 5727 5726 5727 5729 5733 5735 5734 5734 5735 5735 5736 5738 5741 5738 5735 5733 5731 5730 5730 5729 5729 5728 5727 5727 5727 5727 5726 5725 5724 5723 5724 5724 5724 5723
5719 5717 5718 5721 5722 5723 5724 5724 5726 5724 5723 5724 5726 5729 5731 5731 5732 5735 5736 5738 5739 5738 5739 5736 5733 5731 5730 5730 5729 5729 5728 5728 5727 5727 5726 5726 5725 5724 5724 5723 5724 5724 5724
5715 5714 5715 5717 5718 5719 5718 5719 5719 5718 5718 5720 5724 5728 5729 5731 5732 5734 5735 5738 5738 5738 5737 5738 5735 5734 5731 5730 5729 5729 5729 5728 5727 5726 5725 5725 5725 5724 5723 5723 5723 5724 5724
5713 5712 5712 5711 5712 5713 5713 5715 5714 5713 5713 5716 5714 5716 5722 5728 5730 5731 5733 5735 5738 5737 5736 5737 5736 5738 5737 5732 5730 5730 5729 5729 5728 5727 5725 5724 5723 5723 5722 5722 5723 5724 5724
5707 5710 5708 5708 5708 5706 5706 5706 5705 5706 5709 5710 5708 5708 5711 5719 5723 5728 5730 5730 5732 5735 5736 5737 5736 5735 5736 5738 5737 5731 5729 5728 5728 5726 5725 5724 5723 5722 5722 5722 5723 5723 5724
5699 5700 5702 5703 5703 5702 5701 5699 5699 5697 5699 5704 5706 5704 5703 5708 5720 5724 5724 5726 5728 5731 5734 5736 5735 5736 5735 5737 5738 5733 5730 5728 5727 5726 5725 5724 5723 5722 5722 5722 5722 5723 5723
5688 5690 5691 5693 5694 5696 5695 5695 5696 5694 5692 5695 5700 5701 5703 5707 5705 5713 5718 5723 5724 5725 5730 5732 5735 5735 5735 5736 5736 5734 5731 5728 5726 5726 5725 5724 5723 5723 5722 5722 5722 5722 5722
5677 5677 5678 5680 5682 5686 5687 5688 5689 5689 5690 5690 5694 5697 5697 5697 5699 5701 5708 5714 5718 5723 5727 5728 5732 5736 5736 5736 5737 5735 5731 5728 5726 5725 5724 5724 5723 5722 5722 5722 5721 5721 5721
5666 5666 5665 5666 5668 5672 5675 5678 5680 5683 5684 5686 5688 5693 5694 5695 5697 5699 5701 5704 5710 5719 5723 5726 5730 5733 5734 5735 5734 5729 5727 5726 5725 5724 5724 5723 5723 5723 5722 5722 5721 5720 5720
5655 5654 5653 5652 5654 5657 5660 5664 5668 5673 5677 5678 5680 5684 5689 5693 5698 5699 5699 5702 5704 5712 5715 5722 5726 5727 5728 5727 5727 5724 5724 5723 5723 5723 5723 5722 5722 5721 5721 5720 5719 5718 5717
5642 5642 5640 5640 5642 5644 5647 5651 5655 5660 5665 5669 5673 5675 5679 5685 5691 5693 5695 5696 5697 5704 5709 5715 5719 5720 5720 5721 5719 5720 5723 5720 5720 5721 5721 5721 5720 5719 5719 5718 5717 5715 5714
5632 5631 5629 5629 5630 5631 5634 5636 5641 5645 5650 5656 5661 5664 5668 5676 5681 5687 5691 5693 5693 5696 5702 5705 5711 5714 5717 5717 5714 5718 5718 5715 5716 5718 5719 5719 5718 5717 5716 5715 5714 5712 5711
5618 5617 5618 5618 5618 5619 5621 5623 5629 5632 5636 5641 5646 5650 5655 5662 5670 5677 5682 5686 5690 5693 5697 5704 5706 5711 5711 5715 5709 5712 5711 5710 5710 5712 5714 5715 5715 5713 5712 5710 5709 5708 5706
5604 5603 5604 5605 5606 5607 5608 5610 5616 5619 5622 5627 5631 5635 5640 5645 5652 5662 5670 5676 5682 5686 5687 5695 5701 5704 5703 5706 5706 5706 5706 5705 5704 5704 5707 5708 5707 5706 5704 5702 5701 5700 5699
5587 5587 5587 5589 5591 5594 5596 5598 5601 5606 5610 5614 5618 5620 5625 5630 5636 5645 5655 5664 5671 5677 5680 5683 5689 5695 5696 5699 5699 5698 5697 5696 5695 5695 5697 5698 5698 5696 5695 5693 5692 5691 5690
5567 5567 5568 5570 5573 5577 5581 5585 5589 5594 5597 5602 5607 5610 5613 5616 5622 5630 5638 5648 5658 5667 5673 5677 5680 5687 5691 5692 5690 5689 5687 5686 5685 5685 5687 5687 5687 5685 5684 5682 5681 5681 5681
5544 5545 5547 5550 5555 5559 5564 5570 5575 5581 5585 5589 5594 5599 5603 5606 5612 5618 5625 5633 5643 5653 5662 5669 5673 5678 5683 5685 5684 5681 5678 5677 5676 5677 5677 5677 5676 5674 5672 5671 5670 5670 5670
5521 5520 5523 5528 5535 5541 5548 5555 5561 5567 5571 5576 5581 5586 5593 5597 5602 5607 5616 5622 5629 5638 5649 5658 5664 5671 5677 5678 5679 5678 5673 5669 5667 5668 5669 5669 5669 5667 5663 5659 5659 5659 5660
5500 5498 5500 5506 5514 5524 5533 5538 5545 5553 5561 5566 5570 5574 5581 5585 5590 5596 5605 5612 5617 5624 5634 5647 5656 5664 5671 5675 5676 5672 5667 5666 5661 5659 5662 5662 5664 5662 5659 5652 5648 5648 5648
5484 5481 5483 5488 5496 5506 5514 5521 5528 5539 5549 5554 5559 5563 5570 5578 5581 5587 5593 5600 5607 5614 5621 5630 5644 5656 5664 5669 5670 5667 5666 5666 5662 5654 5655 5653 5654 5652 5646 5638 5637 5637 5637
5471 5469 5470 5474 5482 5493 5501 5507 5516 5526 5537 5546 5551 5554 5559 5567 5571 5577 5585 5592 5599 5607 5614 5622 5634 5647 5656 5662 5664 5665 5663 5655 5650 5647 5649 5644 5643 5641 5636 5629 5625 5625 5626
5465 5462 5462 5466 5473 5483 5491 5499 5506 5520 5529 5538 5544 5549 5553 5557 5560 5566 5577 5586 5593 5602 5609 5615 5624 5634 5643 5652 5657 5656 5651 5647 5640 5637 5640 5641 5636 5632 5627 5621 5615 5614 5615
5461 5459 5459 5462 5468 5477 5485 5493 5499 5515 5524 5532 5537 5543 5544 5549 5550 5555 5566 5575 5585 5596 5605 5612 5618 5626 5635 5643 5648 5652 5651 5648 5640 5632 5632 5635 5632 5628 5619 5614 5610 5607 5606